TimeEDT,TemperatureF,Dew PointF,Humidity,Sea Level PressureIn,VisibilityMPH,Wind Direction,Wind SpeedMPH,Gust SpeedMPH,PrecipitationIn,Events,Conditions,WindDirDegrees,DateUTC
12:53 AM,82.0,73.9,76,30.14,10.0,SE,6.9,-,N/A,,Scattered Clouds,140,2013-08-21 04:53:00
1:53 AM,82.0,75.0,79,30.14,10.0,ESE,4.6,-,N/A,,Partly Cloudy,120,2013-08-21 05:53:00
2:53 AM,82.0,75.0,79,30.12,10.0,ESE,9.2,-,N/A,,Partly Cloudy,110,2013-08-21 06:53:00
3:53 AM,81.0,75.0,82,30.12,10.0,ESE,6.9,-,N/A,,Clear,110,2013-08-21 07:53:00
4:53 AM,81.0,73.9,79,30.12,10.0,East,5.8,-,N/A,,Scattered Clouds,100,2013-08-21 08:53:00
5:53 AM,81.0,73.9,79,30.12,10.0,ESE,4.6,-,N/A,,Partly Cloudy,110,2013-08-21 09:53:00
6:53 AM,81.0,73.9,79,30.14,10.0,East,3.5,-,N/A,,Clear,100,2013-08-21 10:53:00
7:53 AM,82.0,75.0,79,30.16,10.0,ENE,4.6,-,N/A,,Clear,70,2013-08-21 11:53:00
8:53 AM,84.0,73.9,72,30.16,10.0,East,6.9,-,N/A,,Clear,90,2013-08-21 12:53:00
9:53 AM,84.9,75.0,72,30.18,10.0,East,8.1,-,N/A,,Clear,80,2013-08-21 13:53:00
10:53 AM,87.1,75.9,69,30.19,10.0,East,9.2,-,N/A,,Partly Cloudy,100,2013-08-21 14:53:00
11:22 AM,87.8,75.2,66,30.20,10.0,East,8.1,-,N/A,Thunderstorm,Partly Cloudy,90,2013-08-21 15:22:00
11:53 AM,87.1,75.9,69,30.20,10.0,East,9.2,-,N/A,Thunderstorm,Partly Cloudy,90,2013-08-21 15:53:00
12:00 PM,82.4,73.4,74,30.20,10.0,East,16.1,23.0,N/A,Thunderstorm,Scattered Clouds,100,2013-08-21 16:00:00
12:10 PM,78.8,71.6,78,30.21,1.0,ENE,4.6,29.9,0.15,Rain-Thunderstorm,Heavy Rain,60,2013-08-21 16:10:00
12:13 PM,78.8,73.4,83,30.20,1.0,Variable,3.5,17.3,0.17,Rain-Thunderstorm,Rain,0,2013-08-21 16:13:00
12:18 PM,78.8,73.4,83,30.20,2.0,WNW,4.6,-,0.18,Rain,Rain,300,2013-08-21 16:18:00
12:27 PM,78.8,75.2,89,30.19,10.0,Calm,Calm,-,0.18,Rain,Light Rain,0,2013-08-21 16:27:00
12:45 PM,80.6,75.2,84,30.20,10.0,Calm,Calm,-,0.18,Thunderstorm,Thunderstorm,0,2013-08-21 16:45:00
12:53 PM,82.9,78.1,85,30.19,10.0,Calm,Calm,-,0.18,Thunderstorm,Thunderstorm,0,2013-08-21 16:53:00
1:20 PM,80.6,-9999,N/A,30.20,-9999.0,North,-9999.0,-,N/A,Thunderstorm,Thunderstorm,0,2013-08-21 17:20:00
1:53 PM,-9999,-9999,N/A,30.20,-9999.0,North,-9999.0,-,N/A,,Unknown,0,2013-08-21 17:53:00
2:25 PM,-9999,-9999,N/A,30.18,-9999.0,North,-9999.0,-,N/A,Thunderstorm,Unknown,0,2013-08-21 18:25:00
2:42 PM,86.0,77.0,74,30.17,10.0,East,12.7,-,N/A,,Mostly Cloudy,100,2013-08-21 18:42:00
2:50 PM,86.0,75.2,70,30.17,10.0,East,12.7,-,N/A,Thunderstorm,Mostly Cloudy,90,2013-08-21 18:50:00
2:53 PM,86.0,75.9,72,30.17,10.0,East,11.5,-,N/A,Thunderstorm,Mostly Cloudy,100,2013-08-21 18:53:00
3:04 PM,87.8,75.2,66,30.16,10.0,East,12.7,-,N/A,,Mostly Cloudy,80,2013-08-21 19:04:00
3:23 PM,86.0,73.4,66,30.15,10.0,ENE,11.5,-,N/A,Thunderstorm,Partly Cloudy,60,2013-08-21 19:23:00
3:38 PM,84.2,69.8,62,30.14,10.0,ENE,8.1,-,N/A,,Clear,70,2013-08-21 19:38:00
3:53 PM,86.0,73.0,65,30.12,10.0,ENE,9.2,-,N/A,,Clear,60,2013-08-21 19:53:00
4:53 PM,86.0,75.0,70,30.13,10.0,East,9.2,-,N/A,,Clear,90,2013-08-21 20:53:00
5:53 PM,84.9,75.9,74,30.12,10.0,East,9.2,-,N/A,,Partly Cloudy,90,2013-08-21 21:53:00
6:53 PM,84.0,75.0,74,30.13,10.0,ESE,6.9,-,N/A,,Partly Cloudy,120,2013-08-21 22:53:00
7:53 PM,82.9,75.0,77,30.12,10.0,ESE,6.9,-,N/A,,Clear,120,2013-08-21 23:53:00
8:53 PM,82.0,75.9,82,30.12,10.0,ESE,8.1,-,N/A,,Partly Cloudy,120,2013-08-22 00:53:00
9:53 PM,82.0,75.9,82,30.14,10.0,SE,6.9,-,N/A,,Scattered Clouds,130,2013-08-22 01:53:00
10:53 PM,82.0,75.9,82,30.15,10.0,ESE,5.8,-,N/A,,Mostly Cloudy,120,2013-08-22 02:53:00
11:10 PM,82.4,75.2,79,30.15,10.0,ESE,5.8,-,N/A,,Scattered Clouds,120,2013-08-22 03:10:00
11:23 PM,82.4,75.2,79,30.15,10.0,ESE,4.6,-,N/A,,Mostly Cloudy,120,2013-08-22 03:23:00
11:35 PM,82.4,75.2,79,30.15,10.0,ESE,4.6,-,N/A,,Scattered Clouds,110,2013-08-22 03:35:00
11:53 PM,82.0,75.9,82,30.15,10.0,ESE,4.6,-,N/A,,Partly Cloudy,120,2013-08-22 03:53:00